This demonstration page uses our WeatherBlox Daily Observations layout. Learn more.

Left ArrowRight Arrow

39.08367, -84.50855

Hourly Observations for December 17, 2019

Temp ( °F °C ) Dew Point ( °F °C ) Humidity (%) Winds ( mph kmh ) Pressure ( in mb ) Visibility ( mi km ) Precip ( " mm )
12:53 am 00:53 Cloudy with Mist and Fog 34 1.1 32 undefined 92 92 NNE 8 13 29.90 1013 4 6 0.03 0.76
1:53 am 01:53 Cloudy 34 1.1 32 undefined 92 92 N 8 13 29.88 1012 7 11 0.07 1.78
2:53 am 02:53 Cloudy with Light Wintry Mix 34 1.1 32 undefined 92 92 N 10 17 29.88 1012 4 6 0.00 0.00
3:07 am 03:07 Cloudy with Light Rain 34 1.1 32 undefined 92 92 N 12 19 29.91 1013 3 5 0.00 0.00
3:37 am 03:37 Cloudy with Light Rain 34 1.1 32 undefined 92 92 N 12 19 29.92 1013 3 4 0.01 0.25
3:48 am 03:48 Cloudy with Light Rain 34 1 32 undefined 93 93 N 12 19 29.92 1013 3 5 0.01 0.25
3:53 am 03:53 Cloudy with Light Rain 34 1.1 32 undefined 92 92 N 10 17 29.90 1013 4 6 0.01 0.25
4:53 am 04:53 Cloudy with Light Rain 34 1.1 31 -0.6 89 89 N 10 17 29.90 1013 10 16 0.00 0.00
5:16 am 05:16 Cloudy 34 1.1 31 -0.6 89 89 N 10 17 29.92 1013 10 16 0.00 0.00
5:27 am 05:27 Cloudy 34 1.1 31 -0.6 89 89 N 13 20 29.93 1013 10 16 0.00 0.00
5:53 am 05:53 Cloudy 34 1.1 31 -0.6 89 89 N 15 24 29.91 1013 7 11 0.00 0.00
6:41 am 06:41 Cloudy 33 0.6 30 -1.1 89 89 N 14 22 29.97 1015 7 11 N/A
6:53 am 06:53 Cloudy with Mist and Fog 33 0.6 29 -1.7 85 85 N 14 22 29.94 1014 6 10 N/A
7:16 am 07:16 Cloudy with Light Snow 32 undefined 30 -1.1 92 92 N 10 17 29.98 1015 2 3 0.00 0.00
7:25 am 07:25 Cloudy with Light Snow 32 undefined 30 -1.1 92 92 N 10 17 29.99 1016 2 2 0.00 0.00
7:29 am 07:29 Cloudy with Light Snow 32 undefined 30 -1.1 92 92 N 13 20 29.99 1016 2 3 0.00 0.00
7:34 am 07:34 Cloudy with Light Snow 32 undefined 30 -1.1 92 92 N 10 17 30.00 1016 3 5 0.00 0.00
7:53 am 07:53 Cloudy with Light Snow 32 undefined 30 -1.1 92 92 N 10 17 29.98 1015 2 3 0.00 0.00
8:29 am 08:29 Cloudy with Mist and Fog 32 undefined 29 -1.7 88 88 N 16 26 30.03 1017 3 5 0.00 0.00
8:40 am 08:40 Cloudy with Light Snow 32 undefined 28 -2.2 85 85 N 16 26 30.03 1017 2 3 0.00 0.00
8:53 am 08:53 Cloudy with Blowing Snow 31 -0.6 28 -2.2 89 89 NNW 13 20 30.03 1017 1 2 0.00 0.00
9:09 am 09:09 Cloudy with Blowing Snow 31 -0.6 28 -2.2 89 89 N 12 19 30.05 1018 2 3 N/A
9:16 am 09:16 Cloudy with Blowing Snow 31 -0.6 28 -2.2 89 89 NNW 12 19 30.06 1018 2 3 N/A
9:50 am 09:50 Cloudy with Light Snow 32 undefined 28 -2 87 87 N 12 19 30.08 1019 4 6 0.00 0.00
9:53 am 09:53 Cloudy with Light Snow 32 undefined 28 -2.2 85 85 NNW 13 20 30.06 1018 3 5 0.00 0.00
10:53 am 10:53 Cloudy with Haze 32 undefined 27 -2.8 82 82 N 12 19 30.09 1019 6 10 0.01 0.25
11:53 am 11:53 Cloudy 33 0.6 26 -3.3 75 75 N 12 19 30.08 1019 9 14 N/A
12:33 pm 12:33 Mostly Cloudy 35 1.7 25 -3.9 67 67 NNW 10 17 30.08 1019 10 16 N/A
12:53 pm 12:53 Mostly Cloudy 36 2.2 26 -3.3 67 67 NNW 13 20 30.07 1018 10 16 N/A
1:53 pm 13:53 Mostly Sunny 37 2.8 25 -3.9 62 62 NNW 10 17 30.07 1018 10 16 N/A
2:53 pm 14:53 Mostly Sunny 36 2.2 23 -5 59 59 NW 13 20 30.09 1019 10 16 N/A
3:53 pm 15:53 Sunny 36 2.2 22 -5.6 57 57 N 12 19 30.11 1020 10 16 N/A
4:53 pm 16:53 Sunny 34 1.1 21 -6.1 59 59 NW 9 15 30.13 1020 10 16 N/A
5:53 pm 17:53 Clear 32 undefined 22 -5.6 66 66 WNW 7 11 30.15 1021 10 16 N/A
6:53 pm 18:53 Clear 31 -0.6 23 -5 72 72 WNW 6 9 30.16 1021 10 16 N/A
7:53 pm 19:53 Clear 30 -1.1 24 -4.4 79 79 W 8 13 30.16 1021 10 16 N/A
8:53 pm 20:53 Clear 29 -1.7 22 -5.6 75 75 W 6 9 30.16 1022 10 16 N/A
9:53 pm 21:53 Clear 28 -2.2 23 -5 81 81 SW 5 7 30.16 1021 10 16 N/A
10:53 pm 22:53 Clear 28 -2.2 23 -5 81 81 WSW 7 11 30.15 1021 10 16 N/A
11:53 pm 23:53 Clear 27 -2.8 22 -5.6 81 81 SW 6 9 30.14 1021 10 16 N/A

Powered by AerisWeather